Location: Unspecified
(54.1780°N, 0.0000°E)
Time: 18:20:37
(UTC+00:00)

Explorer 7 - Pass Details

Date: 18 June 2019
Orbit: 485 x 680 km, 50.3° (Epoch: 25 August)

Event Time Altitude Azimuth Distance (km) Brightness Sun altitude
Rises 10:00:54 0° 204° (SSW) 2,823 10.6 51.9°
Reaches altitude 10° 10:03:41 10° 186° (S) 1,964 10.1 52.2°
Maximum altitude 10:06:49 19° 142° (SE) 1,524 10.2 52.5°
Drops below altitude 10° 10:10:03 10° 99° (E) 2,049 10.4 52.9°
Sets 10:13:01 0° 82° (E) 2,993 10.9 53.2°
